CO3D 4

Last updated on Sun Apr 12 2026 00:02:36 GMT+0000 (Coordinated Universal Time)

1 64901U 25156C 26101.44348368 .00001710 00000+0 82090-4 0 9990 2 64901 97.4324 181.0950 0001603 121.3883 238.7509 15.20204867 39394
UTC large
Height (km)
Speed (km/s)
/
Latitude / Longitude
Inclination (degrees)
Orbital Period (minutes)
Azimuth
Elevation
Range (km)
Doppler Factor

Next 0 passes for location: London (51.5072 / 0.1276)

Sorry there are no passes over London.
CO3D 4